Date String (YYYY-MM-DD hh:mm:ss) UTC,Instrument flags,absolute air pressure of the measurement (hPa),sample flow rate (lpm),inlet stack bypass flow (lpm),air temperature of the measurement (°C),ambient temperature measured by the external sensor (°C),aerosol sample conditioner tube jacket temperature (°C),OPC LED temperature (°C),internal box temperature (°C),relative humidity of the measurement (%),span deviation,mass concentration of particles derived from Lorenz-Mie calculation of OPC scattering (μg/m³),mass concentration of particles derived from Lorenz-Mie calculation of OPC scattering (μg/m³),mass concentration of particles derived from Lorenz-Mie calculation of OPC scattering (μg/m³)
DateTimeUTC,F1_M11,P_M11,Q1_M11,Q2_M11,T1_M11,T2_M11,T3_M11,T4_M11,T5_M11,U1_M11,ZSPAN_M11,X2_M11,X0_M11,X1_M11
2024-03-18 17:00:00,SystemResetWarning,0834.7,5.01,000.00,019.6,019.3,000.0,027.8,021.4,19.2,0000.0,0004.08,0007.73,0003.87
2024-03-18 17:01:00,SystemResetWarning,0834.7,4.99,000.00,019.7,019.3,000.0,027.8,021.4,19.5,0000.0,0004.09,0007.89,0003.87
2024-03-18 17:02:00,SystemResetWarning,0834.7,4.99,000.00,019.7,019.3,000.0,027.8,021.4,19.0,0000.0,0004.12,0008.53,0003.88
2024-03-18 17:03:00,SystemResetWarning,0834.8,5.00,000.00,019.7,019.3,000.0,027.9,021.4,19.5,0000.0,0004.14,0008.68,0003.90
2024-03-18 17:04:00,SystemResetWarning,0834.8,5.00,000.00,019.7,019.3,000.0,027.9,021.4,19.4,0000.0,0004.18,0008.84,0003.93
2024-03-18 17:05:00,SystemResetWarning,0834.7,5.00,000.00,019.7,019.4,000.0,027.9,021.5,19.6,0000.0,0004.23,0009.15,0003.95
2024-03-18 17:06:00,SystemResetWarning,0834.7,5.01,000.00,019.7,019.4,000.0,027.9,021.5,19.1,0000.0,0004.32,0009.62,0003.99
2024-03-18 17:07:00,SystemResetWarning,0834.9,5.00,000.00,019.7,019.4,000.0,027.9,021.5,19.3,0000.0,0004.37,0011.09,0004.03
2024-03-18 17:08:00,SystemResetWarning,0835.1,5.00,000.00,019.8,019.4,000.0,027.9,021.5,19.2,0000.0,0004.42,0012.03,0004.09
2024-03-18 17:09:00,SystemResetWarning,0835.1,5.00,000.00,019.8,019.4,000.0,028.0,021.5,19.4,0000.0,0004.48,0013.91,0004.14
2024-03-18 17:10:00,SystemResetWarning,0835.2,5.00,000.00,019.8,019.4,000.0,028.0,021.5,19.5,0000.0,0004.59,0013.94,0004.20
2024-03-18 17:11:00,SystemResetWarning,0835.2,5.00,000.00,019.8,019.4,000.0,028.0,021.5,19.4,0000.0,0004.69,0014.08,0004.26
2024-03-18 17:12:00,SystemResetWarning,0835.2,5.00,000.00,019.8,019.4,000.0,028.0,021.6,19.4,0000.0,0004.77,0014.25,0004.33
2024-03-18 17:13:00,SystemResetWarning,0835.1,5.00,000.00,019.8,019.5,000.0,028.0,021.6,19.4,0000.0,0004.82,0014.07,0004.38
2024-03-18 17:14:00,SystemResetWarning,0835.1,4.99,000.00,019.8,019.5,000.0,028.0,021.6,19.4,0000.0,0004.90,0014.01,0004.44
2024-03-18 17:15:00,SystemResetWarning,0835.1,5.00,000.00,019.9,019.5,000.0,028.1,021.6,19.5,0000.0,0004.95,0014.46,0004.48
2024-03-18 17:16:00,SystemResetWarning,0835.1,5.00,000.00,019.9,019.5,000.0,028.1,021.6,19.0,0000.0,0005.00,0014.54,0004.51
2024-03-18 17:17:00,SystemResetWarning,0835.0,5.00,000.00,019.9,019.5,000.0,028.1,021.6,18.7,0000.0,0005.00,0014.49,0004.51
2024-03-18 17:18:00,SystemResetWarning,0834.6,5.00,000.00,019.9,019.5,000.0,028.1,021.6,18.5,0000.0,0004.98,0013.12,0004.49
2024-03-18 17:19:00,SystemResetWarning,0834.7,5.00,000.00,019.9,019.5,000.0,028.1,021.7,18.7,0000.0,0004.98,0012.23,0004.47
2024-03-18 17:20:00,SystemResetWarning,0834.7,5.01,000.00,019.9,019.5,000.0,028.1,021.7,19.4,0000.0,0005.01,0010.45,0004.46
2024-03-18 17:21:00,SystemResetWarning,0834.6,5.00,000.00,019.9,019.6,000.0,028.1,021.7,17.6,0000.0,0004.87,0010.15,0004.36
2024-03-18 17:22:00,SystemResetWarning,0834.6,5.00,000.00,019.9,019.6,000.0,028.2,021.7,18.9,0000.0,0004.76,0010.56,0004.28
2024-03-18 17:23:00,SystemResetWarning,0834.6,5.00,000.00,020.0,019.6,000.0,028.2,021.7,18.9,0000.0,0004.70,0010.48,0004.22
2024-03-18 17:24:00,SystemResetWarning,0834.6,5.00,000.00,020.0,019.6,000.0,028.2,021.7,18.1,0000.0,0004.63,0009.86,0004.16
2024-03-18 17:25:00,SystemResetWarning,0834.7,5.00,000.00,020.0,019.6,000.0,028.2,021.7,17.8,0000.0,0004.51,0009.62,0004.05
2024-03-18 17:26:00,SystemResetWarning,0834.6,4.99,000.00,020.0,019.6,000.0,028.2,021.7,18.4,0000.0,0004.41,0009.29,0003.98
2024-03-18 17:27:00,SystemResetWarning,0834.6,5.00,000.00,020.0,019.6,000.0,028.2,021.7,18.6,0000.0,0004.34,0009.16,0003.92
2024-03-18 17:28:00,SystemResetWarning,0835.1,4.99,000.00,020.0,019.6,000.0,028.2,021.7,18.7,0000.0,0004.32,0009.09,0003.90
2024-03-18 17:29:00,SystemResetWarning,0835.0,5.00,000.00,020.0,019.6,000.0,028.3,021.7,18.7,0000.0,0004.35,0009.15,0003.90
2024-03-18 17:30:00,SystemResetWarning,0835.0,5.01,000.00,020.0,019.6,000.0,028.3,021.8,18.7,0000.0,0004.34,0009.26,0003.89
2024-03-18 17:31:00,SystemResetWarning,0835.1,5.01,000.00,020.0,019.6,000.0,028.3,021.8,18.5,0000.0,0004.29,0009.49,0003.85
2024-03-18 17:32:00,SystemResetWarning,0834.9,5.00,000.00,020.0,019.6,000.0,028.3,021.8,18.3,0000.0,0004.37,0009.51,0003.90
2024-03-18 17:33:00,SystemResetWarning,0834.5,4.99,000.00,020.0,019.6,000.0,028.3,021.8,18.7,0000.0,0004.40,0009.45,0003.93
2024-03-18 17:34:00,SystemResetWarning,0834.5,5.00,000.00,020.1,019.6,000.0,028.3,021.8,18.3,0000.0,0004.40,0009.76,0003.92
2024-03-18 17:35:00,SystemResetWarning,0834.5,5.00,000.00,020.1,019.6,000.0,028.3,021.8,18.1,0000.0,0004.44,0009.99,0003.92
2024-03-18 17:36:00,SystemResetWarning,0834.5,5.01,000.00,020.1,019.6,000.0,028.3,021.8,18.0,0000.0,0004.45,0010.84,0003.94
2024-03-18 17:37:00,SystemResetWarning,0834.5,5.01,000.00,020.1,019.6,000.0,028.4,021.8,18.0,0000.0,0004.47,0011.14,0003.93
2024-03-18 17:38:00,SystemResetWarning,0834.5,5.00,000.00,020.1,019.6,000.0,028.4,021.8,18.0,0000.0,0004.44,0012.53,0003.91
2024-03-18 17:39:00,SystemResetWarning,0834.5,4.99,000.00,020.1,019.6,000.0,028.4,021.8,18.1,0000.0,0004.41,0013.27,0003.87
2024-03-18 17:40:00,SystemResetWarning,0834.5,4.99,000.00,020.1,019.6,000.0,028.4,021.8,18.6,0000.0,0004.37,0013.31,0003.83
2024-03-18 17:41:00,SystemResetWarning,0834.4,5.00,000.00,020.1,019.6,000.0,028.4,021.8,17.9,0000.0,0004.33,0013.28,0003.78
2024-03-18 17:42:00,SystemResetWarning,0834.4,5.01,000.00,020.1,019.6,000.0,028.4,021.8,17.9,0000.0,0004.30,0012.85,0003.75
2024-03-18 17:43:00,SystemResetWarning,0834.4,5.01,000.00,020.1,019.6,000.0,028.4,021.8,18.8,0000.0,0004.24,0012.51,0003.73
2024-03-18 17:44:00,SystemResetWarning,0834.4,4.99,000.00,020.1,019.6,000.0,028.4,021.8,19.0,0000.0,0004.21,0012.00,0003.70
2024-03-18 17:45:00,SystemResetWarning,0834.4,4.99,000.00,020.1,019.6,000.0,028.4,021.8,18.7,0000.0,0004.18,0011.45,0003.69
2024-03-18 17:46:00,SystemResetWarning,0834.4,5.00,000.00,020.1,019.6,000.0,028.4,021.9,18.6,0000.0,0004.13,0011.22,0003.67
2024-03-18 17:47:00,SystemResetWarning,0834.3,5.01,000.00,020.1,019.6,000.0,028.4,021.9,18.6,0000.0,0004.11,0010.54,0003.67
2024-03-18 17:48:00,SystemResetWarning,0834.3,5.01,000.00,020.1,019.6,000.0,028.4,021.9,18.2,0000.0,0004.11,0010.45,0003.66
2024-03-18 17:49:00,SystemResetWarning,0834.3,4.99,000.00,020.1,019.6,000.0,028.4,021.9,18.0,0000.0,0004.11,0009.28,0003.65
2024-03-18 17:50:00,SystemResetWarning,0834.3,4.99,000.00,020.2,019.6,000.0,028.5,021.9,17.7,0000.0,0004.13,0010.20,0003.65
2024-03-18 17:51:00,SystemResetWarning,0834.5,4.98,000.00,020.2,019.6,000.0,028.5,021.9,18.2,0000.0,0004.11,0010.52,0003.65
2024-03-18 17:52:00,SystemResetWarning,0834.6,5.00,000.00,020.2,019.7,000.0,028.5,021.9,18.0,0000.0,0004.11,0010.63,0003.64
2024-03-18 17:53:00,SystemResetWarning,0834.5,5.00,000.00,020.2,019.7,000.0,028.5,021.9,17.8,0000.0,0004.12,0010.83,0003.65
2024-03-18 17:54:00,SystemResetWarning,0834.5,5.01,000.00,020.2,019.6,000.0,028.5,021.9,18.6,0000.0,0004.14,0010.92,0003.64
2024-03-18 17:55:00,SystemResetWarning,0834.3,5.01,000.00,020.2,019.7,000.0,028.5,021.9,18.0,0000.0,0004.13,0011.04,0003.64
2024-03-18 17:56:00,SystemResetWarning,0834.5,5.00,000.00,020.2,019.6,000.0,028.5,021.9,17.3,0000.0,0004.12,0011.44,0003.61
2024-03-18 17:57:00,SystemResetWarning,0834.4,5.00,000.00,020.2,019.6,000.0,028.5,021.9,17.4,0000.0,0004.11,0011.67,0003.61
2024-03-18 17:58:00,SystemResetWarning,0834.4,4.99,000.00,020.2,019.6,000.0,028.5,021.9,17.9,0000.0,0004.12,0011.47,0003.61
2024-03-18 17:59:00,SystemResetWarning,0834.4,4.99,000.00,020.2,019.6,000.0,028.5,021.9,17.7,0000.0,0004.11,0011.36,0003.62
